Location: Unspecified
(0.0000°N, 0.0000°E)
Time: 06:33:19
(UTC+00:00)

Transit 4A - Pass Details

Date: 19 November 2019
Orbit: 870 x 975 km, 66.8° (Epoch: 11 December)

Event Time Altitude Azimuth Distance (km) Brightness Sun altitude
Rises 20:12:05 0° 201° (SSW) 3,667 11.6 -34.3°
Reaches altitude 10° 20:14:39 10° 201° (SSW) 2,719 10.8 -34.8°
Enters shadow 20:18:46 43° 205° (SSW) 1,336 8.9 -35.8°
